TimeEST,TemperatureF,Dew PointF,Humidity,Sea Level PressureIn,VisibilityMPH,Wind Direction,Wind SpeedMPH,Gust SpeedMPH,PrecipitationIn,Events,Conditions,WindDirDegrees,DateUTC
12:52 AM,24.1,21.9,91,30.38,10.0,WSW,3.5,-,N/A,,Clear,240,2013-02-11 05:52:00
1:52 AM,23.0,21.9,96,30.37,10.0,SW,3.5,-,N/A,,Clear,230,2013-02-11 06:52:00
2:52 AM,26.1,23.0,88,30.33,10.0,Calm,Calm,-,N/A,,Clear,0,2013-02-11 07:52:00
3:52 AM,28.0,26.1,92,30.33,10.0,SSW,3.5,-,N/A,,Clear,210,2013-02-11 08:52:00
4:52 AM,30.0,28.0,92,30.30,10.0,SSW,3.5,-,N/A,,Clear,200,2013-02-11 09:52:00
5:52 AM,33.1,28.9,85,30.30,10.0,South,4.6,-,N/A,,Clear,190,2013-02-11 10:52:00
6:52 AM,34.0,28.9,82,30.28,10.0,South,5.8,-,N/A,,Partly Cloudy,170,2013-02-11 11:52:00
7:52 AM,36.0,30.0,79,30.25,10.0,SSE,9.2,-,N/A,,Overcast,160,2013-02-11 12:52:00
8:52 AM,37.9,33.1,83,30.23,10.0,SSE,8.1,16.1,N/A,,Overcast,160,2013-02-11 13:52:00
9:52 AM,39.0,35.1,86,30.19,10.0,SSE,10.4,16.1,N/A,,Overcast,160,2013-02-11 14:52:00
10:52 AM,39.0,36.0,89,30.13,9.0,SSE,12.7,18.4,0.01,Rain,Light Rain,150,2013-02-11 15:52:00
11:52 AM,41.0,39.0,93,30.05,8.0,SSE,13.8,26.5,0.05,Rain,Light Rain,160,2013-02-11 16:52:00
12:52 PM,43.0,39.9,89,29.99,10.0,South,13.8,27.6,0.00,Rain,Light Rain,170,2013-02-11 17:52:00
1:31 PM,42.8,39.2,87,29.94,8.0,SSE,12.7,21.9,0.01,Rain,Light Rain,160,2013-02-11 18:31:00
1:52 PM,42.1,39.9,92,29.93,5.0,South,15.0,26.5,0.02,Rain,Light Rain,170,2013-02-11 18:52:00
2:49 PM,42.8,42.8,100,29.88,2.5,South,12.7,20.7,0.05,Rain,Light Rain,170,2013-02-11 19:49:00
2:52 PM,43.0,42.1,97,29.88,2.0,South,13.8,21.9,0.06,Rain,Light Rain,170,2013-02-11 19:52:00
2:57 PM,42.8,42.8,100,29.88,1.8,South,11.5,21.9,0.00,Rain,Light Rain,180,2013-02-11 19:57:00
3:00 PM,42.8,42.8,100,29.88,2.0,South,10.4,21.9,0.00,Rain,Light Rain,180,2013-02-11 20:00:00
3:07 PM,42.8,42.8,100,29.87,2.0,South,11.5,19.6,0.00,Rain,Light Rain,170,2013-02-11 20:07:00
3:20 PM,42.8,42.8,100,29.86,1.8,South,12.7,24.2,0.01,Rain,Light Rain,180,2013-02-11 20:20:00
3:27 PM,42.8,42.8,100,29.85,2.0,South,11.5,21.9,0.02,Rain,Light Rain,180,2013-02-11 20:27:00
3:44 PM,42.8,42.8,100,29.83,1.8,South,12.7,27.6,0.03,Rain,Light Rain,170,2013-02-11 20:44:00
3:52 PM,43.0,43.0,100,29.83,1.5,South,15.0,24.2,0.03,Rain,Light Rain,170,2013-02-11 20:52:00
4:52 PM,44.1,44.1,100,29.78,1.0,SSW,13.8,24.2,0.04,Rain,Light Rain,200,2013-02-11 21:52:00
5:52 PM,44.1,44.1,100,29.74,0.8,SSW,11.5,23.0,0.06,Rain,Rain,210,2013-02-11 22:52:00
6:52 PM,42.1,42.1,100,29.74,0.8,SW,9.2,20.7,0.04,Rain,Light Rain,230,2013-02-11 23:52:00
7:52 PM,41.0,41.0,100,29.70,0.5,WSW,6.9,-,0.03,Fog,Fog,240,2013-02-12 00:52:00
8:52 PM,39.9,39.9,100,29.69,0.5,SW,5.8,-,N/A,Fog,Fog,230,2013-02-12 01:52:00
9:52 PM,42.1,42.1,100,29.66,0.5,WSW,6.9,-,N/A,Fog,Fog,240,2013-02-12 02:52:00
10:16 PM,42.8,42.8,100,29.64,0.2,SW,4.6,-,N/A,Fog,Fog,230,2013-02-12 03:16:00
10:52 PM,41.0,41.0,100,29.64,0.2,SW,4.6,-,N/A,Fog,Fog,230,2013-02-12 03:52:00
11:32 PM,37.4,37.4,100,29.62,0.5,SW,3.5,-,N/A,Fog,Fog,230,2013-02-12 04:32:00
11:52 PM,39.9,39.9,100,29.63,0.5,WSW,4.6,-,N/A,Fog,Fog,240,2013-02-12 04:52:00